Regional Weather Roundup
Issued by NWS

Home | Current Version | Previous Version | Graphics & Text | Print | Product List | Glossary On
Versions: 1 2 3 4 5 6 7 8 9 10 11 12 13 14 15 16 17 18 19 20 21 22 23 24 25 26 27 28 29 30 31 32 33 34 35 36 37 38 39 40 41 42 43 44 45 46 47 48 49 50
668
ASUS45 KABQ 100910
RWRNM
NEW MEXICO REGIONAL WEATHER ROUNDUP
NATIONAL WEATHER SERVICE ALBUQUERQUE NM
200 AM MST WED FEB 10 2016

NOTE: "FAIR" MEANS FEW OR NO CLOUDS BELOW 12,000 FEET AGL WITH NO
       SIGNIFICANT WEATHER OR OBSTRUCTIONS TO VISION.

      THIS PRODUCT IS RELEASED AS TWO VERSIONS.  ONE VERSION NEAR
      THE TOP OF THE HOUR CONTAINING PRELIMINARY DATA FROM ALBUQUERQUE
      AND OTHER STATIONS.  A FINAL VERSION WITH ADDITIONAL DATA IS
      ISSUED ABOUT 10 MINUTES AFTER THE HOUR.

NMZ501-503-504-510>518-101000-
NORTHWEST PLATEAU/NORTHCENTRAL MOUNTAINS

CITY           SKY/WX    TMP DP  RH WIND       PRES   REMARKS
FARMINGTON     CLOUDY    27  21  78 E7        30.42R WCI  19
LOS ALAMOS     CLOUDY    38  13  36 CALM      30.43S
SANTA FE       CLOUDY    29  18  63 N14       30.39F WCI  18
TAOS           CLOUDY    25  16  68 N5        30.44S WCI  19
ANGEL FIRE     FAIR       2  -1  85 CALM      30.46F

$$
NMZ402-403-502-505>509-101000-
WESTCENTRAL MOUNTAINS/SOUTHWEST MOUNTAINS

CITY           SKY/WX    TMP DP  RH WIND       PRES   REMARKS
GALLUP         CLEAR     23  18  81 NE5       30.44S WCI  17
GRANTS         CLEAR     17  12  81 NW7       30.46S WCI   7
SILVER CITY      N/A     28  19  69 N8        30.39S WCI  20

$$
NMZ407-409-411-412-101000-
SOUTHERN DESERTS

CITY           SKY/WX    TMP DP  RH WIND       PRES   REMARKS
LORDSBURG      FAIR      39  19  45 S7        30.35R WCI  34
DEMING         CLEAR     32  16  51 NW7       30.35S WCI  26
LAS CRUCES     CLEAR     37  17  46 CALM      30.37S
ALAMOGORDO     CLOUDY    37  18  44 CALM      30.36S
T OR C         CLEAR     38  19  46 W9        30.36S WCI  31

$$
NMZ519>523-101000-
CENTRAL VALLEYS/CENTRAL HIGHLANDS

CITY           SKY/WX    TMP DP  RH WIND       PRES   REMARKS
ALBUQUERQUE    CLOUDY    33  18  53 CALM      30.41R
DOUBLE EAGLE   CLOUDY    25  13  61 CALM      30.41S
MORIARTY ARPT  FAIR      18  15  86 N5        30.41F WCI  11
CLINES CORNERS CLOUDY    33  17  51 W9        30.37F WCI  25
BELEN          FAIR      27  15  62 N7        30.40S WCI  19
SOCORRO        FAIR      36  17  47 NW7       30.39S WCI  30

$$
NMZ524>526-539-540-101000-
SOUTHCENTRAL MOUNTAINS

CITY           SKY/WX    TMP DP  RH WIND       PRES   REMARKS
RUIDOSO          N/A     37  12  35 W6        30.42S WCI  33

$$
NMZ527>531-101000-
NORTHEAST HIGHLANDS/NORTHEAST PLAINS

CITY           SKY/WX    TMP DP  RH WIND       PRES   REMARKS
LAS VEGAS      CLOUDY    34  17  50 S6        30.37F WCI  29
RATON          CLOUDY    22  16  78 NE6       30.34F WCI  14
CLAYTON        CLOUDY    36  18  48 W14       30.27F WCI  27

$$
NMZ532>537-101000-
EASTCENTRAL PLAINS

CITY           SKY/WX    TMP DP  RH WIND       PRES   REMARKS
TUCUMCARI      CLOUDY    28  17  63 W8        30.31F WCI  20
CANNON AFB     CLOUDY    39  17  41 NW10      30.32S WCI  32
CLOVIS AIRPORT CLOUDY    34  18  51 NW9       30.33S WCI  26

$$
NMZ028-029-538-101000-
SOUTHEAST PLAINS

CITY           SKY/WX    TMP DP  RH WIND       PRES   REMARKS
ROSWELL        CLOUDY    35  20  54 NW3       30.34F
ARTESIA        CLOUDY    30  21  69 NW7       30.36S WCI  23
CARLSBAD       CLOUDY    30  21  69 NW5       30.34S WCI  25
HOBBS          CLOUDY    32  19  59 W8        30.35S WCI  25


$$




USA.gov is the U.S. government's official web portal to all federal, state and local government web resources and services.